| time (UTC) | temp C | wind direction | speed KPH | gust KPH | rain 1hr cm | rain 24hr cm | rain mn cm | humidity % | barometer mb |
| 20260506134326 | 7 | 358 | 1.6 | 12.9 | 0.00 | 1.24 | 1.24 | 99 | 1006.7 |
| 20260506133823 | 7 | 289 | 0.0 | 3.2 | 0.00 | 1.24 | 1.24 | 99 | 1006.9 |
| 20260506133319 | 7 | 259 | 3.2 | 4.8 | 0.00 | 1.24 | 1.24 | 99 | 1007.0 |
| 20260506132816 | 7 | 310 | 1.6 | 3.2 | 0.00 | 1.24 | 1.24 | 99 | 1006.9 |
| 20260506132313 | 7 | 319 | 3.2 | 8.0 | 0.00 | 1.24 | 1.24 | 99 | 1006.6 |
| 20260506131811 | 7 | 323 | 3.2 | 4.8 | 0.00 | 1.24 | 1.24 | 99 | 1006.5 |
| 20260506131307 | 7 | 277 | 0.0 | 3.2 | 0.00 | 1.24 | 1.24 | 99 | 1006.5 |
| 20260506130804 | 7 | 298 | 0.0 | 4.8 | 0.00 | 1.24 | 1.24 | 99 | 1006.4 |
| 20260506130301 | 7 | 281 | 0.0 | 3.2 | 0.00 | 1.24 | 1.24 | 99 | 1006.5 |
| 20260506125759 | 7 | 304 | 1.6 | 1.6 | 0.00 | 1.24 | 1.24 | 99 | 1005.8 |
| 20260506125257 | 7 | 293 | 0.0 | 3.2 | 0.00 | 1.24 | 1.24 | 99 | 1006.0 |
| 20260506124755 | 7 | 286 | 0.0 | 1.6 | 0.00 | 1.24 | 1.24 | 99 | 1006.0 |
| 20260506124252 | 7 | 340 | 3.2 | 4.8 | 0.00 | 1.24 | 1.24 | 99 | 1006.2 |
| 20260506123749 | 7 | 281 | 0.0 | 3.2 | 0.00 | 1.24 | 1.24 | 99 | 1005.8 |
| 20260506123248 | 7 | 273 | 0.0 | 1.6 | 0.00 | 1.24 | 1.24 | 99 | 1005.7 |
| 20260506122744 | 7 | 285 | 0.0 | 1.6 | 0.00 | 1.24 | 1.24 | 99 | 1005.9 |
| 20260506122241 | 7 | 286 | 1.6 | 3.2 | 0.00 | 1.24 | 1.24 | 99 | 1005.8 |
| 20260506121740 | 7 | 272 | 0.0 | 1.6 | 0.00 | 1.24 | 1.24 | 99 | 1005.3 |
| 20260506121236 | 7 | 262 | 0.0 | 1.6 | 0.00 | 1.24 | 1.24 | 99 | 1005.6 |
| 20260506120733 | 6 | 10 | 1.6 | 3.2 | 0.00 | 1.24 | 1.24 | 99 | 1005.4 |
| 20260506120231 | 6 | 290 | 0.0 | 8.0 | 0.00 | 1.24 | 1.24 | 99 | 1005.5 |
| 20260506115729 | 6 | 295 | 1.6 | 3.2 | 0.00 | 1.24 | 1.24 | 99 | 1005.2 |
| 20260506115227 | 6 | 291 | 0.0 | 3.2 | 0.00 | 1.24 | 1.24 | 99 | 1005.3 |
| 20260506114724 | 7 | 285 | 0.0 | 3.2 | 0.00 | 1.24 | 1.24 | 99 | 1005.1 |
| 20260506114222 | 6 | 291 | 0.0 | 4.8 | 0.00 | 1.24 | 1.24 | 99 | 1005.6 |
| 20260506113720 | 6 | 313 | 1.6 | 4.8 | 0.00 | 1.24 | 1.24 | 99 | 1005.6 |
| 20260506113217 | 7 | 275 | 0.0 | 1.6 | 0.00 | 1.24 | 1.24 | 99 | 1005.8 |
| 20260506112713 | 7 | 295 | 1.6 | 1.6 | 0.00 | 1.24 | 1.24 | 99 | 1005.6 |
| 20260506112211 | 6 | 285 | 3.2 | 4.8 | 0.00 | 1.24 | 1.24 | 99 | 1005.2 |
| 20260506111708 | 7 | 293 | 1.6 | 1.6 | 0.00 | 1.24 | 1.24 | 99 | 1005.3 |
| 20260506111207 | 7 | 297 | 0.0 | 0.0 | 0.00 | 1.24 | 1.24 | 99 | 1004.9 |
| 20260506110703 | 7 | 276 | 0.0 | 1.6 | 0.00 | 1.24 | 1.24 | 99 | 1004.8 |
| 20260506110201 | 7 | 295 | 0.0 | 3.2 | 0.00 | 1.24 | 1.24 | 99 | 1004.9 |
| 20260506105657 | 7 | 57 | 0.0 | 1.6 | 0.00 | 1.24 | 1.24 | 99 | 1005.4 |
| 20260506105154 | 7 | 295 | 0.0 | 3.2 | 0.00 | 1.24 | 1.24 | 99 | 1005.2 |
| 20260506104652 | 7 | 308 | 1.6 | 3.2 | 0.00 | 1.24 | 1.24 | 99 | 1004.6 |
| 20260506104150 | 6 | 273 | 0.0 | 0.0 | 0.00 | 1.24 | 1.24 | 99 | 1004.6 |
| 20260506103647 | 7 | 274 | 0.0 | 0.0 | 0.00 | 1.24 | 1.24 | 99 | 1004.5 |
| 20260506103143 | 6 | 331 | 3.2 | 3.2 | 0.00 | 1.24 | 1.24 | 99 | 1004.3 |
| 20260506102642 | 6 | 326 | 1.6 | 1.6 | 0.00 | 1.24 | 1.24 | 99 | 1004.1 |
| 20260506102139 | 6 | 283 | 0.0 | 1.6 | 0.00 | 1.24 | 1.24 | 99 | 1003.7 |
| 20260506101635 | 6 | 352 | 3.2 | 4.8 | 0.00 | 1.24 | 1.24 | 99 | 1003.4 |
| 20260506101132 | 6 | 313 | 0.0 | 1.6 | 0.00 | 1.24 | 1.24 | 99 | 1004.0 |
| 20260506100631 | 6 | 279 | 0.0 | 1.6 | 0.00 | 1.24 | 1.24 | 99 | 1004.0 |
| 20260506100128 | 6 | 279 | 0.0 | 1.6 | 0.00 | 1.24 | 1.24 | 99 | 1003.8 |
| 20260506095627 | 6 | 325 | 3.2 | 3.2 | 0.00 | 1.24 | 1.24 | 99 | 1003.3 |
| 20260506095123 | 6 | 285 | 0.0 | 1.6 | 0.00 | 1.24 | 1.24 | 99 | 1003.4 |
| 20260506094621 | 6 | 287 | 1.6 | 3.2 | 0.00 | 1.24 | 1.24 | 99 | 1003.8 |
| 20260506094118 | 6 | 312 | 0.0 | 1.6 | 0.13 | 1.24 | 1.24 | 99 | 1004.0 |
| 20260506093617 | 6 | 266 | 0.0 | 1.6 | 0.00 | 1.22 | 1.22 | 99 | 1004.2 |
| 20260506093114 | 6 | 257 | 0.0 | 3.2 | 0.18 | 1.22 | 1.22 | 99 | 1004.5 |
| 20260506092612 | 6 | 330 | 1.6 | 3.2 | 0.18 | 1.22 | 1.22 | 99 | 1004.6 |
| 20260506092108 | 6 | 289 | 0.0 | 1.6 | 0.00 | 1.19 | 1.19 | 99 | 1004.5 |
| 20260506091606 | 6 | 23 | 1.6 | 3.2 | 0.13 | 1.19 | 1.19 | 99 | 1004.5 |
| 20260506091103 | 6 | 262 | 0.0 | 1.6 | 0.13 | 1.19 | 1.19 | 99 | 1004.7 |
| 20260506090601 | 6 | 310 | 0.0 | 1.6 | 0.18 | 1.17 | 1.17 | 99 | 1004.5 |
| 20260506090057 | 6 | 268 | 0.0 | 1.6 | 0.18 | 1.17 | 1.17 | 99 | 1004.2 |
| 20260506085554 | 6 | 279 | 0.0 | 1.6 | 0.00 | 1.14 | 1.14 | 99 | 1004.3 |
| 20260506085050 | 6 | 279 | 0.0 | 1.6 | 0.00 | 1.14 | 1.14 | 99 | 1004.3 |
| 20260506084548 | 6 | 264 | 0.0 | 1.6 | 0.00 | 1.14 | 1.14 | 99 | 1004.2 |
| 20260506084044 | 6 | 288 | 0.0 | 3.2 | 0.00 | 1.14 | 1.14 | 99 | 1004.6 |
| 20260506083541 | 6 | 356 | 1.6 | 3.2 | 0.00 | 1.14 | 1.14 | 99 | 1004.5 |
| 20260506083038 | 6 | 286 | 0.0 | 3.2 | 0.13 | 1.14 | 1.14 | 99 | 1004.5 |
| 20260506082535 | 6 | 299 | 1.6 | 9.7 | 0.13 | 1.14 | 1.14 | 99 | 1004.5 |
| 20260506082031 | 6 | 318 | 1.6 | 8.0 | 0.00 | 1.12 | 1.12 | 99 | 1004.2 |
| 20260506081529 | 6 | 278 | 1.6 | 8.0 | 0.00 | 1.12 | 1.12 | 99 | 1003.8 |
| 20260506081026 | 6 | 292 | 1.6 | 8.0 | 0.18 | 1.12 | 1.12 | 99 | 1004.0 |
| 20260506080524 | 6 | 307 | 3.2 | 9.7 | 0.30 | 1.12 | 1.12 | 99 | 1003.9 |
| 20260506073507 | 6 | 317 | 1.6 | 4.8 | 0.48 | 0.94 | 0.94 | 99 | 1004.2 |
| 20260506073004 | 6 | 263 | 1.6 | 1.6 | 0.30 | 0.89 | 0.89 | 99 | 1004.2 |
| 20260506072501 | 6 | 289 | 1.6 | 3.2 | 0.30 | 0.86 | 0.86 | 99 | 1004.0 |
| 20260506071959 | 6 | 312 | 0.0 | 9.7 | 0.48 | 0.84 | 0.84 | 99 | 1003.8 |
| 20260506071457 | 6 | 303 | 1.6 | 4.8 | 0.30 | 0.79 | 0.79 | 99 | 1003.9 |
| 20260506070954 | 6 | 328 | 1.6 | 4.8 | 0.30 | 0.76 | 0.76 | 99 | 1003.6 |
| 20260506070451 | 6 | 282 | 0.0 | 3.2 | 0.30 | 0.74 | 0.74 | 99 | 1003.6 |
| 20260506062428 | 7 | 304 | 1.6 | 3.2 | 0.13 | 0.53 | 0.53 | 99 | 1003.7 |
| 20260506061924 | 7 | 312 | 1.6 | 3.2 | 0.30 | 0.51 | 0.51 | 99 | 1003.8 |
| 20260506061421 | 7 | 10 | 1.6 | 4.8 | 0.13 | 0.48 | 0.48 | 99 | 1003.7 |
| 20260506060919 | 7 | 313 | 4.8 | 4.8 | 0.18 | 0.46 | 0.46 | 99 | 1003.6 |
| 20260506060417 | 7 | 342 | 3.2 | 8.0 | 0.30 | 0.46 | 0.46 | 99 | 1003.8 |
| 20260506051348 | 8 | 309 | 1.6 | 3.2 | 0.18 | 0.23 | 0.23 | 99 | 1004.1 |
| 20260506050846 | 8 | 316 | 1.6 | 4.8 | 0.13 | 0.20 | 0.20 | 99 | 1004.1 |
| 20260506050343 | 8 | 264 | 0.0 | 0.0 | 0.30 | 0.20 | 0.20 | 99 | 1004.5 |
| 20260506044833 | 8 | 282 | 1.6 | 3.2 | 0.00 | 0.13 | 0.13 | 99 | 1004.5 |
| 20260506044332 | 8 | 270 | 0.0 | 4.8 | 0.18 | 0.13 | 0.13 | 99 | 1004.5 |
| 20260506043828 | 8 | 289 | 0.0 | 3.2 | 0.18 | 0.13 | 0.13 | 99 | 1004.3 |
| 20260506043326 | 8 | 296 | 0.0 | 0.0 | 0.13 | 0.10 | 0.10 | 99 | 1004.5 |
| 20260506042824 | 8 | 322 | 0.0 | 1.6 | 0.13 | 0.10 | 0.10 | 99 | 1004.8 |
| 20260506042323 | 8 | 312 | 0.0 | 1.6 | 0.18 | 0.08 | 0.08 | 99 | 1004.5 |
| 20260506041821 | 8 | 285 | 0.0 | 1.6 | 0.30 | 0.08 | 0.08 | 99 | 1004.8 |
| 20260506041318 | 8 | 352 | 0.0 | 3.2 | 0.30 | 0.05 | 0.05 | 99 | 1004.7 |
| 20260506040815 | 8 | 281 | 0.0 | 1.6 | 0.18 | 0.03 | 0.03 | 99 | 1004.8 |
| 20260506040312 | 8 | 287 | 0.0 | 1.6 | 0.18 | 0.00 | 0.00 | 99 | 1004.8 |
| 20260506035808 | 8 | 267 | 1.6 | 4.8 | 0.30 | 2.51 | 2.51 | 99 | 1005.0 |
| 20260506035306 | 8 | 331 | 0.0 | 1.6 | 0.30 | 2.49 | 2.49 | 99 | 1004.9 |
| 20260506034803 | 9 | 283 | 0.0 | 0.0 | 0.48 | 2.46 | 2.46 | 99 | 1004.8 |
| 20260506034300 | 9 | 328 | 3.2 | 4.8 | 0.61 | 2.44 | 2.44 | 99 | 1004.9 |
| 20260506033757 | 9 | 275 | 0.0 | 3.2 | 0.43 | 2.39 | 2.39 | 99 | 1004.9 |
| 20260506033253 | 9 | 269 | 0.0 | 1.6 | 0.30 | 2.34 | 2.34 | 99 | 1005.0 |
| 20260506032751 | 9 | 276 | 0.0 | 1.6 | 0.18 | 2.31 | 2.31 | 99 | 1004.8 |
| 20260506032247 | 9 | 276 | 0.0 | 1.6 | 0.13 | 2.29 | 2.29 | 99 | 1005.0 |
| 20260506031744 | 9 | 359 | 1.6 | 3.2 | 0.13 | 2.29 | 2.29 | 99 | 1004.8 |
| 20260506031241 | 9 | 295 | 3.2 | 8.0 | 0.18 | 2.26 | 2.26 | 99 | 1004.9 |
| 20260506030739 | 9 | 253 | 1.6 | 4.8 | 0.18 | 2.26 | 2.26 | 99 | 1005.1 |
| 20260506030237 | 10 | 311 | 1.6 | 4.8 | 0.13 | 2.24 | 2.24 | 99 | 1005.0 |
| 20260506025733 | 10 | 274 | 0.0 | 3.2 | 0.13 | 2.24 | 2.24 | 99 | 1005.0 |
| 20260506025229 | 10 | 271 | 0.0 | 1.6 | 0.18 | 2.21 | 2.21 | 99 | 1004.9 |
| 20260506024721 | 10 | 308 | 1.6 | 3.2 | 0.18 | 2.21 | 2.21 | 99 | 1004.9 |
| 20260506024218 | 10 | 322 | 0.0 | 1.6 | 0.18 | 2.18 | 2.18 | 99 | 1005.0 |
| 20260506023714 | 10 | 305 | 1.6 | 1.6 | 0.18 | 2.18 | 2.18 | 99 | 1005.0 |
| 20260506023211 | 10 | 342 | 1.6 | 3.2 | 0.13 | 2.16 | 2.16 | 99 | 1005.3 |
| 20260506022708 | 10 | 306 | 0.0 | 1.6 | 0.13 | 2.16 | 2.16 | 99 | 1005.2 |
| 20260506022206 | 10 | 265 | 0.0 | 1.6 | 0.00 | 2.13 | 2.13 | 99 | 1005.2 |
| 20260506021704 | 10 | 285 | 0.0 | 1.6 | 0.30 | 2.13 | 2.13 | 99 | 1005.5 |
| 20260506021200 | 10 | 274 | 1.6 | 4.8 | 0.61 | 2.13 | 2.13 | 99 | 1005.2 |
| 20260506020657 | 10 | 100 | 1.6 | 1.6 | 1.07 | 2.08 | 2.08 | 99 | 1005.0 |
| 20260506020155 | 10 | 309 | 6.4 | 8.0 | 2.16 | 2.03 | 2.03 | 99 | 1004.9 |
| 20260506015652 | 10 | 334 | 3.2 | 3.2 | 2.46 | 1.88 | 1.88 | 99 | 1005.0 |
| 20260506015150 | 11 | 25 | 1.6 | 3.2 | 1.37 | 1.65 | 1.65 | 99 | 1004.6 |
| 20260506014646 | 11 | 268 | 0.0 | 3.2 | 0.79 | 1.47 | 1.47 | 99 | 1004.3 |
| 20260506014142 | 11 | 248 | 0.0 | 0.0 | 0.89 | 1.40 | 1.40 | 99 | 1004.2 |
| 20260506013640 | 12 | 308 | 1.6 | 3.2 | 0.97 | 1.32 | 1.32 | 99 | 1004.3 |
| 20260506013137 | 12 | 307 | 1.6 | 1.6 | 0.43 | 1.22 | 1.22 | 99 | 1003.9 |
| 20260506012633 | 12 | 269 | 0.0 | 1.6 | 0.30 | 1.17 | 1.17 | 99 | 1003.9 |
| 20260506012130 | 13 | 296 | 0.0 | 1.6 | 0.30 | 1.14 | 1.14 | 99 | 1004.0 |
| 20260506011627 | 13 | 280 | 0.0 | 0.0 | 0.13 | 1.12 | 1.12 | 99 | 1004.0 |
| 20260506011123 | 13 | 278 | 0.0 | 0.0 | 0.18 | 1.09 | 1.09 | 99 | 1003.9 |
| 20260506010622 | 13 | 271 | 0.0 | 3.2 | 0.30 | 1.09 | 1.09 | 99 | 1003.8 |
| 20260506010119 | 13 | 288 | 0.0 | 3.2 | 0.30 | 1.07 | 1.07 | 99 | 1003.7 |
| 20260506005616 | 13 | 256 | 0.0 | 0.0 | 0.30 | 1.04 | 1.04 | 99 | 1003.9 |
| 20260506005112 | 13 | 271 | 0.0 | 0.0 | 0.13 | 1.02 | 1.02 | 99 | 1003.8 |
| 20260506004609 | 13 | 261 | 0.0 | 1.6 | 0.18 | 0.99 | 0.99 | 99 | 1004.0 |
| 20260506004106 | 13 | 259 | 0.0 | 3.2 | 0.30 | 0.99 | 0.99 | 99 | 1003.9 |
| 20260506003602 | 13 | 256 | 0.0 | 3.2 | 0.30 | 0.97 | 0.97 | 99 | 1003.9 |
| 20260506003058 | 13 | 254 | 0.0 | 0.0 | 0.36 | 0.94 | 0.94 | 99 | 1004.0 |
| 20260506002554 | 13 | 263 | 0.0 | 1.6 | 0.30 | 0.91 | 0.91 | 99 | 1003.8 |
| 20260506002050 | 13 | 234 | 0.0 | 0.0 | 0.13 | 0.89 | 0.89 | 99 | 1004.0 |
| 20260506001547 | 13 | 260 | 0.0 | 0.0 | 0.18 | 0.86 | 0.86 | 99 | 1004.0 |
| 20260506001044 | 13 | 260 | 0.0 | 0.0 | 0.18 | 0.86 | 0.86 | 99 | 1003.9 |
| 20260506000542 | 13 | 260 | 0.0 | 0.0 | 0.00 | 0.84 | 0.84 | 99 | 1003.8 |
| 20260506000039 | 13 | 260 | 0.0 | 0.0 | 0.00 | 0.84 | 0.84 | 99 | 1004.0 |
| 20260505235537 | 13 | 260 | 0.0 | 0.0 | 0.00 | 0.84 | 0.84 | 99 | 1004.1 |
| 20260505235033 | 13 | 260 | 0.0 | 0.0 | 0.00 | 0.84 | 0.84 | 99 | 1003.9 |
| 20260505234530 | 13 | 260 | 0.0 | 0.0 | 0.00 | 0.84 | 0.84 | 99 | 1003.9 |
| 20260505234027 | 13 | 260 | 0.0 | 0.0 | 0.13 | 0.84 | 0.84 | 99 | 1004.0 |
| 20260505233525 | 13 | 257 | 0.0 | 0.0 | 0.30 | 0.84 | 0.84 | 99 | 1004.1 |
| 20260505233022 | 13 | 268 | 0.0 | 0.0 | 0.18 | 0.81 | 0.81 | 99 | 1004.0 |
| 20260505232520 | 13 | 272 | 0.0 | 0.0 | 0.13 | 0.79 | 0.79 | 99 | 1004.1 |
| 20260505232017 | 13 | 281 | 0.0 | 1.6 | 0.18 | 0.76 | 0.76 | 99 | 1004.5 |
| 20260505231514 | 13 | 283 | 1.6 | 1.6 | 0.30 | 0.76 | 0.76 | 99 | 1004.2 |
| 20260505231013 | 13 | 263 | 0.0 | 3.2 | 0.30 | 0.74 | 0.74 | 99 | 1004.3 |
| 20260505230509 | 13 | 274 | 1.6 | 3.2 | 0.48 | 0.71 | 0.71 | 99 | 1004.5 |
| 20260505230006 | 13 | 275 | 1.6 | 4.8 | 1.98 | 0.69 | 0.69 | 99 | 1004.5 |
| 20260505225503 | 14 | 311 | 1.6 | 3.2 | 2.95 | 0.61 | 0.61 | 98 | 1004.8 |
| 20260505224959 | 14 | 327 | 4.8 | 9.7 | 1.50 | 0.30 | 0.30 | 98 | 1004.9 |
| 20260505224456 | 15 | 294 | 0.0 | 3.2 | 0.30 | 0.10 | 0.10 | 97 | 1004.7 |
| 20260505223953 | 15 | 295 | 1.6 | 3.2 | 0.00 | 0.05 | 0.05 | 96 | 1004.2 |
| 20260505223450 | 15 | 298 | 1.6 | 3.2 | 0.00 | 0.05 | 0.05 | 96 | 1004.0 |
| 20260505222946 | 15 | 267 | 0.0 | 1.6 | 0.00 | 0.05 | 0.05 | 96 | 1003.8 |
| 20260505222443 | 15 | 253 | 1.6 | 1.6 | 0.00 | 0.05 | 0.05 | 95 | 1003.7 |
| 20260505221938 | 15 | 290 | 1.6 | 1.6 | 0.00 | 0.05 | 0.05 | 95 | 1003.7 |
| 20260505221436 | 15 | 275 | 0.0 | 1.6 | 0.00 | 0.05 | 0.05 | 95 | 1003.9 |
| 20260505220933 | 15 | 281 | 1.6 | 1.6 | 0.00 | 0.05 | 0.05 | 95 | 1003.8 |
| 20260505220430 | 15 | 271 | 0.0 | 0.0 | 0.00 | 0.05 | 0.05 | 95 | 1004.0 |
| 20260505215927 | 15 | 290 | 0.0 | 1.6 | 0.00 | 0.05 | 0.05 | 95 | 1003.7 |
| 20260505215425 | 15 | 21 | 0.0 | 1.6 | 0.00 | 0.05 | 0.05 | 94 | 1003.4 |
| 20260505214923 | 15 | 263 | 0.0 | 1.6 | 0.00 | 0.05 | 0.05 | 94 | 1003.9 |
| 20260505214421 | 15 | 268 | 0.0 | 0.0 | 0.00 | 0.05 | 0.05 | 95 | 1004.1 |
| 20260505213918 | 15 | 255 | 0.0 | 1.6 | 0.00 | 0.05 | 0.05 | 95 | 1003.9 |
| 20260505213415 | 15 | 280 | 0.0 | 1.6 | 0.00 | 0.05 | 0.05 | 95 | 1003.8 |
| 20260505212911 | 15 | 270 | 0.0 | 3.2 | 0.00 | 0.05 | 0.05 | 94 | 1003.8 |
| 20260505212408 | 15 | 276 | 1.6 | 1.6 | 0.00 | 0.05 | 0.05 | 94 | 1003.5 |
| 20260505211905 | 15 | 269 | 0.0 | 0.0 | 0.00 | 0.05 | 0.05 | 94 | 1003.9 |
| 20260505211402 | 15 | 304 | 3.2 | 8.0 | 0.00 | 0.05 | 0.05 | 95 | 1003.9 |
| 20260505210858 | 15 | 258 | 3.2 | 3.2 | 0.00 | 0.05 | 0.05 | 95 | 1003.9 |
| 20260505210356 | 15 | 283 | 1.6 | 8.0 | 0.00 | 0.05 | 0.05 | 95 | 1003.9 |
| 20260505205852 | 15 | 277 | 1.6 | 4.8 | 0.00 | 0.05 | 0.05 | 96 | 1003.9 |
| 20260505205351 | 15 | 269 | 0.0 | 1.6 | 0.00 | 0.05 | 0.05 | 96 | 1004.0 |
| 20260505204847 | 15 | 272 | 0.0 | 3.2 | 0.00 | 0.05 | 0.05 | 95 | 1004.0 |
| 20260505204345 | 15 | 254 | 1.6 | 1.6 | 0.00 | 0.05 | 0.05 | 94 | 1004.2 |
| 20260505203842 | 15 | 270 | 1.6 | 4.8 | 0.00 | 0.05 | 0.05 | 93 | 1004.2 |
| 20260505203338 | 16 | 299 | 1.6 | 1.6 | 0.18 | 0.05 | 0.05 | 92 | 1004.2 |
| 20260505202835 | 16 | 296 | 4.8 | 4.8 | 0.18 | 0.05 | 0.05 | 89 | 1004.1 |
| 20260505202331 | 16 | 256 | 4.8 | 8.0 | 0.13 | 0.03 | 0.03 | 87 | 1004.0 |
| 20260505201828 | 17 | 270 | 1.6 | 1.6 | 0.13 | 0.03 | 0.03 | 84 | 1003.8 |
| 20260505201325 | 17 | 279 | 0.0 | 0.0 | 0.00 | 0.00 | 0.00 | 81 | 1004.0 |
| 20260505200824 | 18 | 356 | 0.0 | 1.6 | 0.00 | 0.00 | 0.00 | 76 | 1004.0 |
| 20260505200320 | 18 | 238 | 0.0 | 0.0 | 0.00 | 0.00 | 0.00 | 75 | 1004.0 |
| 20260505195815 | 18 | 270 | 0.0 | 0.0 | 0.00 | 0.00 | 0.00 | 76 | 1003.8 |
| 20260505195313 | 18 | 250 | 0.0 | 1.6 | 0.00 | 0.00 | 0.00 | 75 | 1003.8 |
| 20260505194810 | 18 | 213 | 0.0 | 1.6 | 0.00 | 0.00 | 0.00 | 74 | 1003.7 |
| 20260505194307 | 18 | 257 | 1.6 | 3.2 | 0.00 | 0.00 | 0.00 | 75 | 1004.1 |
| 20260505193802 | 18 | 172 | 0.0 | 3.2 | 0.00 | 0.00 | 0.00 | 74 | 1004.0 |
| 20260505193300 | 18 | 319 | 3.2 | 3.2 | 0.00 | 0.00 | 0.00 | 74 | 1003.9 |
| 20260505192758 | 18 | 304 | 1.6 | 4.8 | 0.00 | 0.00 | 0.00 | 73 | 1004.1 |
| 20260505192256 | 18 | 250 | 0.0 | 4.8 | 0.00 | 0.00 | 0.00 | 71 | 1004.0 |
| 20260505191754 | 19 | 261 | 1.6 | 3.2 | 0.00 | 0.00 | 0.00 | 71 | 1004.1 |
| 20260505191252 | 19 | 302 | 1.6 | 1.6 | 0.00 | 0.00 | 0.00 | 70 | 1004.1 |
| 20260505190748 | 20 | 270 | 0.0 | 3.2 | 0.00 | 0.00 | 0.00 | 70 | 1003.9 |
| 20260505190243 | 19 | 258 | 0.0 | 3.2 | 0.00 | 0.00 | 0.00 | 69 | 1004.0 |
| 20260505185740 | 18 | 147 | 4.8 | 4.8 | 0.00 | 0.00 | 0.00 | 71 | 1004.1 |
| 20260505185236 | 18 | 197 | 3.2 | 3.2 | 0.00 | 0.00 | 0.00 | 70 | 1004.1 |
| 20260505184732 | 18 | 248 | 1.6 | 3.2 | 0.00 | 0.00 | 0.00 | 71 | 1004.2 |
| 20260505184230 | 19 | 178 | 1.6 | 4.8 | 0.00 | 0.00 | 0.00 | 70 | 1004.3 |
| 20260505183726 | 19 | 231 | 3.2 | 3.2 | 0.00 | 0.00 | 0.00 | 70 | 1004.7 |
| 20260505183224 | 19 | 116 | 3.2 | 4.8 | 0.00 | 0.00 | 0.00 | 70 | 1004.6 |
| 20260505182720 | 19 | 267 | 4.8 | 4.8 | 0.00 | 0.00 | 0.00 | 70 | 1004.7 |
| 20260505182217 | 19 | 126 | 1.6 | 4.8 | 0.00 | 0.00 | 0.00 | 71 | 1005.0 |
| 20260505181713 | 18 | 327 | 1.6 | 9.7 | 0.00 | 0.00 | 0.00 | 71 | 1004.7 |
| 20260505181211 | 18 | 66 | 1.6 | 4.8 | 0.00 | 0.00 | 0.00 | 71 | 1004.8 |
| 20260505180707 | 18 | 229 | 1.6 | 3.2 | 0.00 | 0.00 | 0.00 | 71 | 1005.0 |
| 20260505180204 | 18 | 118 | 1.6 | 8.0 | 0.00 | 0.00 | 0.00 | 71 | 1004.7 |
| 20260505175700 | 18 | 57 | 3.2 | 11.3 | 0.00 | 0.00 | 0.00 | 70 | 1004.6 |
| 20260505175157 | 19 | 156 | 4.8 | 8.0 | 0.00 | 0.00 | 0.00 | 71 | 1004.6 |
| 20260505174653 | 19 | 222 | 3.2 | 4.8 | 0.00 | 0.00 | 0.00 | 69 | 1004.3 |
| 20260505174149 | 19 | 265 | 3.2 | 4.8 | 0.00 | 0.00 | 0.00 | 69 | 1004.3 |
| 20260505173646 | 20 | 200 | 0.0 | 11.3 | 0.00 | 0.00 | 0.00 | 68 | 1004.7 |
| 20260505173143 | 19 | 266 | 3.2 | 4.8 | 0.00 | 0.00 | 0.00 | 69 | 1004.3 |
| 20260505172641 | 19 | 284 | 3.2 | 8.0 | 0.00 | 0.00 | 0.00 | 69 | 1004.1 |
| 20260505172137 | 19 | 245 | 3.2 | 11.3 | 0.00 | 0.00 | 0.00 | 69 | 1004.5 |
| 20260505171632 | 19 | 110 | 1.6 | 8.0 | 0.00 | 0.00 | 0.00 | 69 | 1004.3 |
| 20260505171129 | 20 | 356 | 4.8 | 8.0 | 0.00 | 0.00 | 0.00 | 68 | 1004.3 |
| 20260505170627 | 20 | 232 | 3.2 | 17.7 | 0.00 | 0.00 | 0.00 | 69 | 1004.6 |
| 20260505170123 | 20 | 286 | 3.2 | 11.3 | 0.00 | 0.00 | 0.00 | 68 | 1004.6 |
| 20260505165617 | 20 | 145 | 1.6 | 4.8 | 0.00 | 0.00 | 0.00 | 68 | 1004.3 |
| 20260505165114 | 20 | 67 | 1.6 | 3.2 | 0.00 | 0.00 | 0.00 | 68 | 1004.2 |
| 20260505164610 | 20 | 125 | 4.8 | 11.3 | 0.00 | 0.00 | 0.00 | 67 | 1004.3 |
| 20260505164108 | 20 | 100 | 1.6 | 8.0 | 0.00 | 0.00 | 0.00 | 66 | 1004.0 |
| 20260505163606 | 20 | 275 | 0.0 | 3.2 | 0.00 | 0.00 | 0.00 | 65 | 1004.3 |
| 20260505163103 | 21 | 260 | 4.8 | 9.7 | 0.00 | 0.00 | 0.00 | 64 | 1004.5 |
| 20260505162600 | 21 | 216 | 1.6 | 12.9 | 0.00 | 0.00 | 0.00 | 64 | 1004.2 |
| 20260505162058 | 21 | 276 | 9.7 | 12.9 | 0.00 | 0.00 | 0.00 | 64 | 1004.3 |
| 20260505161555 | 21 | 343 | 4.8 | 4.8 | 0.00 | 0.00 | 0.00 | 65 | 1004.1 |
| 20260505161052 | 21 | 203 | 3.2 | 11.3 | 0.00 | 0.00 | 0.00 | 64 | 1004.3 |
| 20260505160550 | 21 | 193 | 3.2 | 12.9 | 0.00 | 0.00 | 0.00 | 65 | 1004.2 |
| 20260505153026 | 20 | 284 | 1.6 | 8.0 | 0.00 | 0.00 | 0.00 | 68 | 1003.6 |
| 20260505152523 | 20 | 239 | 0.0 | 8.0 | 0.00 | 0.00 | 0.00 | 69 | 1003.5 |
| 20260505152019 | 20 | 151 | 3.2 | 8.0 | 0.00 | 0.00 | 0.00 | 69 | 1003.5 |
| 20260505151514 | 20 | 359 | 3.2 | 4.8 | 0.00 | 0.00 | 0.00 | 68 | 1003.5 |
| 20260505151012 | 20 | 64 | 3.2 | 9.7 | 0.00 | 0.00 | 0.00 | 68 | 1004.0 |
| 20260505150508 | 20 | 16 | 8.0 | 12.9 | 0.00 | 0.00 | 0.00 | 67 | 1003.6 |
| 20260505140433 | 18 | 168 | 1.6 | 9.7 | 0.00 | 0.00 | 0.00 | 72 | 1003.6 |